Погода в Ашхабаде

Погода в Ашхабаде : погода сейчас, прогноз погоды и архив. Всё, что Вы хотите узнать о погоде в Ашхабаде!

Поиск расширенной информации на нашем сайте:

Другие новости

Новости СМИ2

Главная страница сайта

Новости сайта

03.07.2017

Напоминаем, что на нашем специализированном сайте Метеоцентр.Азия вы можете получить высокодетализированные автоматические прогнозы погоды по пунктам России, СНГ и мира в авиационном формате (включающие направление и скорость ветра, видимость, явления погоды, количество и форму облачности, нижнюю и верхнюю границу облачности).

Рекомендуем: вред курения

Погода в Ашхабаде - сегодня

Время (UTC), дата Ветер
(°,м/с) 
Видим.   Явления Облачность Т
(°С)
Тd
(°С)
f(%) Тe
(°С)
Pmin
(гПа)
dP
(гПа)
Po
(мм)
O2
(г/м3)
Тmin Tmax R s Состояние
почвы
03 20.02.18 300 (СЗ) 10 км    ясно 
-1.8 -5.1 78 -3  1030.3  -0.3  758  308           
06 20.02.18 100 (В) 10 км    4/3 1500 м средняя 
[Sc|Ac trans]
+5.2 +1.1 75 +5  1030.3  0.9  753  298  +0.9    0.0     
09 20.02.18 340 (С) 10 км  {морось}  10/10 300 м 
[St]
+6.2 +3.8 85 +6  1021.5  0.1  747  294           
12 20.02.18 150 (ЮВ) 10 км  {морось}  10/10 330 м 
[St]
+6.3 +3.2 81 +7  1021.5  747  294           
15 20.02.18 140 (ЮВ) 10 км    10/8 1500 м средняя 
[Sc|Ac und]
+6.8 +4 82 +6  1021.6  0.2  747  293    +7  0.0     
18 20.02.18 100 (В) 4000 м  {морось}  10/10 100 м 
[St]
+3 +1.7 91 +2  1032.8  0.2  755  301    +3.2  0.0     
21 20.02.18 220 (ЮЗ) 10 км    8/6 870 м средняя 
[Sc|Ac trans]
+3.8 +2.8 93 +5  1022.2  0.2  747  297           
00 21.02.18 тихо ()   10 км    10/10 1020 м кучево-дожд. 
[Cb cap]
+3.6 +2.1 90 +4  1022.3  747  297           
03 21.02.18 040 (СВ) 10 км    10/10 1050 м кучево-дожд. 
[Cb cap]
+5.4 +3.7 89 +6  1023.1  0.9  748  295           
06 21.02.18 080 (В) 10 км    10/10 900 м 
[Sc]
+7.9 +3.8 75 +8  1023.3  0.5  748  292  +3         
09 21.02.18 130 (ЮВ) 10 км    10/10 720 м 
[Sc]
+10.2 +3.6 64 +9  1021.5  -1.6  747  290           
12 21.02.18 110 (В) 10 км    10/8 800 м средняя 
[Sc|Ac und]
+10.6 +4.3 65 +10  1020.5  -0.9  746  289           
15 21.02.18 110 (В) 4000 м    10/10 600 м 
[Sc]
+9.4 +6.1 80 +8  1021.7  747  290    +11.4       
18 21.02.18 130 (ЮВ) 4000 м  дымка  10/10 800 м 
[Sc]
+9 +6.4 84 +9  1021.2  -0.5  747  290    +11.4       
21 21.02.18 090 (В) 4000 м  дымка  10/10 750 м 
[Sc]
+8.2 +6.5 89 +8  1020.5  -0.7  746  291           
00 22.02.18 130 (ЮВ) 4000 м  дымка  10/10 600 м 
[Sc]
+8 +6.5 90 +8  1019.2  -1.3  745  291           
03 22.02.18 040 (СВ) 2000 м  дымка  10/10 600 м 
[Sc]
+8.5 +5.1 79 +9  1019  -0.1  745  290  +8         
06 22.02.18 тихо ()   4000 м  дымка  10/10 300 м верхняя 
[Frnb|As trans|Ci]
+9 +6.4 84 +9  1019  745  290           
09 22.02.18 080 (В) 4000 м  дымка  10/10 480 м 
[St]
+11 +6.8 75 +11  1016.8  -2  744  287           
12 22.02.18 120 (ЮВ) 4000 м  дымка  10/10 660 м 
[Sc]
+11.8 +7 72 +12  1015  -1.6  743  286    -1.3       
15 22.02.18 270 (З) 4000 м  дымка  10/10 1260 м 
[Sc]
+11.3 +7.8 79 +12  1015.8  0.8  743  286    +12       
18 22.02.18 020 (С) 2000 м  дымка  10/8 1260 м средняя 
[Sc|Ac und]
+10.4 +8 85 +11  1015.4  -0.5  743  287    +12       
21 22.02.18 270 (З) 2000 м  дымка  10/8 1080 м средняя 
[Sc|Ac und]
+8.8 +6.7 87 +8  1014.7  -0.9  742  289           
00 23.02.18 260 (З) 2000 м  дымка  10/10 870 м 
[Sc]
+9.2 +6.7 84 +8  1014.7  742  288    -0.8       
03 23.02.18 230 (ЮЗ) 4000 м  дымка  10/10 1000 м 
[Sc]
+8.8 +5.9 82 +8  1015.5  0.8  743  289  +8.6         
Время (UTC), дата Ветер
(°,м/с) 
Видим.   Явления Облачность Т
(°С)
Тd
(°С)
f(%) Тe
(°С)
Pmin
(гПа)
dP
(гПа)
Po
(мм)
O2
(г/м3)
Тmin Tmax R s Состояние
почвы

Для получения пояснительной информации подведите курсор к названию столбца.

ПОГОДА в Ашхабаде - архив

Всё, что Вы хотите узнать о погоде в Ашхабаде - удобно и подробно!

Выберите нужную дату (начиная с 1 января 2015* года) и нажмите кнопку "Найти".
Будут отображены архивные сводки погоды по пункту Ашхабад, начиная с указанной даты.


Отображать данные в формате CSV (для использования в таблицах Excel)


Внимание! Наш архив погоды предназначен исключительно для личного некоммерческого использования в познавательных целях. Если Вам необходимы официальные справки о состоянии погоды (для производственных, юридических, коммерческих и т.п. целей), обращайтесь в органы Росгидромета.

*Примечание: данная дата относится к архиву по метеостанциям СССР (Россия, СНГ, Балтия).
Архив по метеостанциям Зарубежной Европы и Азии (кроме Китая) хранится 10 дней, по другим регионам земного шара (Китай, Африка, Америка, Австралия, Океания) - 1 день.

Ашхабад - район местоположения метеостанции


Название, широта, долгота, высота метеостанции:
Ашхабад (город) 38°ш. 58.3°д. 208 м над ур. моря [Туркменистан]

Дополнительная информация

В oтличие oт бoльшинства пoгoдных сайтoв мы публикуем пoдрoбную метеoинфoрмацию в детальнoм прoфессиoнальнoм фoрмате.

Характеристики температуры и влажнoсти вoздуха измеряются на высoте 2 м в тени вдали oт зданий и деревьев.
Скoрoсть ветра измеряется на высoте 10 м (на урoвне рoста челoвека скoрoсть ветра ниже в 1.5-2 раза). Если метеoстанция нахoдится в гoрoде или в лесу, тo скoрoсть ветра занижена на 2-4 м/с пo сравнению с oткрытым местoм. Скoрoсть ветра над акватoриями крупных рек и oзёр, а также на вершинах хoлмoв на 2-5 м/с выше, чем в oбычных услoвиях.
Атмoсфернoе давление в разных тoчках местнoсти мoжет значительнo oтличаться oт давления на метеoстанции, в зависимoсти oт услoвий рельефа (при пoдъёме на 10 м давление пoнижается примернo на 1 мм рт.ст.).